RH
43 35 28 28 30 33 29 28 26 25 18 13 10 12 10 10 12 16 21 29 35 34 34 30 35 40 43 49 48 50 63 72 75 64 55 50 40 30 28 28 26 25 22 30 36
52 36 37 40 46 54 53 41 26 21 17 16 12 8 12 9 10 14 25 28 26 29 33 34 35 39 40 42 42 40 39 40 48 42 34 31 30 28 24 21 25 26 27 27 23
44 43 55 49 76 73 91 81 49 31 17 10 11 10 7 11 9 14 15 25 25 25 27 31 36 39 36 36 42 40 39 34 31 30 29 28 28 29 21 21 27 28 25 21 21
46 51 58 70 70 96 91 100 53 28 13 9 6 9 8 8 10 12 15 19 27 22 23 26 31 36 31 39 42 37 35 29 22 22 25 26 28 24 26 26 25 25 25 25 24
53 65 68 100 74 96 100 100 58 15 4 4 5 6 6 7 11 12 15 19 22 21 20 23 26 32 29 36 38 33 28 23 19 20 18 24 26 26 26 23 25 26 24 23 27
58 79 78 90 85 100 100 93 37 6 4 3 3 5 6 8 11 10 14 20 15 21 22 22 26 30 25 26 30 28 22 22 23 18 14 18 19 24 22 22 29 33 26 24 29
57 81 78 91 100 100 99 76 20 5 4 3 3 4 4 11 8 10 14 18 14 22 22 27 25 29 25 25 25 24 20 26 20 16 17 16 16 16 18 22 27 35 27 28 35
85 78 80 66 78 99 86 60 13 4 2 3 3 3 5 7 7 10 12 16 16 21 21 25 25 26 25 22 23 30 19 29 15 23 17 18 15 16 17 20 23 28 31 37 70
65 80 92 53 76 100 91 64 14 4 2 2 2 2 4 6 7 12 12 15 16 18 21 22 24 25 26 20 25 26 27 38 19 21 22 17 14 15 17 19 23 28 33 60 100
70 86 100 57 98 97 100 67 20 3 2 2 2 2 5 7 6 11 13 14 18 18 21 19 22 24 27 21 23 41 56 36 25 20 24 20 18 19 17 22 28 32 45 99 100
77 88 68 76 100 99 98 77 14 3 2 1 3 3 5 6 6 11 13 14 17 17 20 18 20 24 27 30 33 40 44 32 41 24 25 25 24 21 18 22 32 44 100 100 100
83 70 88 77 100 100 89 92 20 6 2 2 3 4 5 5 6 12 12 14 17 15 20 18 18 28 29 29 29 31 33 49 43 28 21 22 22 22 16 20 30 43 92 100 100
70 69 61 82 100 100 100 51 22 6 3 3 4 4 5 5 6 9 12 14 17 17 20 17 19 28 26 29 33 32 40 41 41 35 19 24 23 23 17 17 26 37 100 100 100
89 61 67 82 100 100 100 62 19 7 6 5 4 4 6 5 6 8 12 14 18 18 20 18 19 26 24 31 32 36 42 41 41 37 20 31 26 26 21 18 26 32 78 100 100
90 67 100 100 100 100 100 65 22 10 9 6 5 7 5 6 8 8 12 13 18 22 18 17 18 24 23 29 31 39 36 37 37 37 26 30 30 27 23 18 26 35 40 100 100
78 74 100 100 100 100 100 88 22 15 11 7 8 9 5 6 8 9 11 14 17 20 19 19 19 21 23 31 32 32 31 31 36 35 32 31 35 25 24 20 23 29 30 60 100
81 76 94 100 100 100 100 100 25 20 10 8 10 10 7 7 9 9 10 13 14 16 16 18 19 22 24 25 25 27 26 30 36 37 37 29 33 30 25 21 29 29 28 52 100
88 65 78 100 100 100 100 100 34 17 12 11 12 10 8 8 9 8 10 12 13 16 21 19 15 19 20 22 25 26 28 32 36 37 32 23 31 34 26 22 25 34 24 38 100
81 67 69 100 100 100 100 100 43 22 17 15 12 9 9 8 8 7 9 12 13 14 16 18 26 23 23 23 24 25 25 28 32 32 30 27 30 34 27 23 22 28 29 39 75
60 84 82 100 100 100 100 100 53 30 19 14 11 12 11 10 10 8 8 11 14 14 15 18 23 25 24 22 24 25 25 25 31 30 30 29 28 29 25 21 22 27 32 43 46
56 78 64 100 100 100 100 73 62 32 19 13 15 16 15 17 16 14 11 10 13 15 14 16 19 21 23 24 23 25 25 25 29 32 30 29 27 25 24 22 23 25 33 40 48
66 92 66 100 100 97 100 100 62 38 22 16 16 16 18 19 18 18 15 12 12 15 17 16 16 17 20 23 24 26 24 22 29 29 25 26 27 24 22 19 26 29 31 34 34
71 90 65 100 100 84 100 100 63 66 29 26 21 20 18 19 18 16 15 14 14 14 17 17 16 17 18 20 20 22 22 25 28 26 24 23 25 20 20 21 30 31 32 32 29
68 72 100 78 100 81 100 100 99 55 52 30 33 27 27 26 25 22 20 19 17 17 17 17 18 18 20 23 24 25 25 26 26 23 21 21 22 20 21 24 33 34 34 35 36
61 80 95 100 84 91 98 100 100 98 59 59 40 25 28 33 27 26 25 21 19 18 18 20 19 18 19 19 17 18 18 17 18 18 19 21 22 22 24 30 34 34 35 35 37
80 68 61 100 100 100 100 100 100 100 100 60 48 30 32 38 43 39 40 29 26 26 22 20 18 17 17 16 15 14 14 16 17 19 21 20 19 24 30 38 38 36 40 42 71
93 54 78 92 100 89 89 97 100 100 100 100 84 54 44 27 31 35 35 35 35 33 28 25 22 20 21 18 17 17 18 19 19 20 22 25 26 26 39 43 40 45 60 76 82
Wind_Speed
62 66 70 65 61 58 65 70 78 86 91 90 89 90 98 98 91 84 75 76 73 71 58 57 59 57 55 54 55 54 53 56 55 54 56 57 58 58 59 60 62 62 60 58 60
64 70 61 52 51 55 60 65 73 79 89 95 95 94 96 101 97 85 84 81 79 73 63 58 60 57 53 51 51 49 50 51 50 50 50 51 52 53 53 53 52 54 55 55 55
68 61 52 52 50 52 55 63 70 75 81 88 94 97 97 100 100 92 89 86 84 75 66 60 54 52 46 47 48 46 49 45 46 47 48 48 47 49 49 50 47 47 47 47 47
66 50 48 48 51 51 54 61 69 70 71 74 83 96 99 97 100 98 94 93 88 77 68 61 52 48 48 48 48 46 46 43 37 35 40 42 41 42 40 40 42 41 40 39 40
54 48 49 49 51 54 54 58 64 62 56 61 68 86 96 95 95 103 99 96 88 77 69 60 54 52 50 49 46 44 42 41 34 32 31 39 39 34 33 26 34 38 39 38 40
50 44 52 45 45 49 52 57 60 54 46 53 60 79 91 93 98 107 107 101 89 80 76 63 58 59 52 45 43 40 40 33 34 31 28 29 27 36 24 29 35 36 38 39 36
50 46 47 43 38 47 48 52 52 48 45 49 54 73 83 96 98 106 109 103 91 84 78 72 66 61 55 48 44 36 34 31 34 27 26 27 28 30 27 33 33 34 34 37 29
45 45 43 44 44 46 47 50 46 42 42 46 51 62 79 93 101 103 112 106 94 88 82 75 68 62 57 51 43 36 34 31 30 28 24 29 22 30 32 32 32 34 32 31 20
48 44 47 40 39 48 45 48 43 38 38 39 47 60 77 99 99 102 113 106 97 91 85 79 71 60 55 50 43 36 36 35 29 29 27 28 22 30 31 32 33 34 30 25 21
43 39 49 46 45 48 48 47 40 30 32 33 41 53 85 100 99 100 112 108 102 96 90 79 72 61 55 46 40 44 44 37 32 30 31 28 26 31 29 28 28 29 27 22 24
42 39 46 41 47 53 49 50 38 24 25 29 38 58 88 96 96 97 110 108 104 97 85 76 69 58 54 56 53 46 42 40 36 32 33 31 30 30 31 29 27 25 24 24 22
38 39 42 40 50 57 52 45 38 21 18 27 41 63 84 94 96 97 106 106 102 92 87 79 67 67 66 57 50 47 47 43 39 36 35 30 30 30 30 28 27 26 29 26 23
34 37 37 46 49 59 58 42 31 16 15 26 40 64 84 91 91 93 101 105 100 97 86 76 70 70 62 56 52 51 47 41 41 38 37 32 31 31 30 29 30 24 29 28 25
31 32 36 43 50 55 60 44 28 9 12 24 40 64 80 86 86 90 98 106 99 91 86 80 76 75 63 60 56 56 51 44 42 41 40 33 33 33 32 32 34 28 32 31 29
27 25 31 41 45 50 56 44 24 4 9 24 40 65 79 83 84 81 93 103 99 91 86 80 77 74 64 62 62 65 54 49 46 45 41 37 35 35 34 33 35 34 29 33 31
22 20 24 32 42 47 53 43 19 7 7 25 44 66 71 75 80 83 84 101 102 94 89 87 86 77 72 72 71 62 53 52 47 45 41 40 36 40 37 38 39 37 33 34 32
17 16 20 26 35 41 49 45 18 9 11 30 53 61 66 69 71 74 77 97 100 91 87 86 82 79 78 70 66 59 55 52 47 44 47 42 36 43 39 40 41 39 36 36 37
12 10 14 21 26 33 40 39 15 6 20 39 54 57 60 60 63 66 70 87 94 91 89 82 75 74 68 67 65 60 57 53 49 47 49 46 41 45 44 42 43 43 40 36 43
11 10 12 14 20 29 32 30 11 17 34 43 48 52 50 50 54 57 60 72 87 87 82 81 82 80 77 75 70 63 57 58 51 50 49 48 49 50 48 45 47 46 44 40 44
9 11 5 12 14 21 29 22 20 27 34 40 41 36 36 36 40 47 49 57 73 87 88 85 84 81 79 74 68 62 63 56 53 53 53 51 53 52 51 50 48 50 49 47 48
11 4 2 8 9 17 25 16 26 28 29 34 33 31 29 29 31 37 45 51 57 73 86 88 87 83 79 73 70 69 62 60 59 57 56 55 56 55 55 53 52 52 53 53 53
12 5 6 6 5 12 20 14 26 27 28 26 29 29 31 29 29 33 41 47 51 58 73 85 88 83 79 75 73 71 65 62 60 59 61 60 59 58 57 56 54 52 53 56 57
20 12 5 10 3 11 19 14 18 30 27 27 24 25 24 25 28 30 33 40 46 53 62 72 77 79 77 73 69 67 64 64 65 65 63 62 63 60 58 57 56 56 58 58 60
23 20 13 12 7 5 16 16 13 29 29 28 27 26 23 23 25 28 29 33 39 46 54 61 68 68 69 73 75 73 71 70 68 63 64 61 62 59 57 56 59 58 58 58 61
20 26 21 15 12 11 14 18 16 14 33 30 30 30 30 27 26 26 29 30 35 41 48 53 59 64 67 68 67 67 67 65 63 64 60 62 59 57 57 60 60 60 61 59 58
15 32 29 23 13 20 17 13 18 18 18 32 31 33 33 31 30 31 29 30 33 36 40 46 53 58 63 66 66 66 65 63 63 63 62 62 60 58 58 60 61 62 63 61 56
14 35 35 31 25 21 22 16 19 22 20 20 29 35 33 34 34 33 31 32 33 35 37 41 45 49 51 54 55 54 56 57 59 60 60 59 60 58 59 61 63 64 61 60 61
Wind_Direction
300 300 299 294 286 279 273 265 260 256 250 247 238 234 229 225 223 224 222 223 225 228 224 223 221 221 223 224 229 231 235 243 246 249 249 252 254 259 258 259 263 267 268 267 270
308 307 302 297 297 290 286 280 267 258 251 245 240 233 229 224 220 219 222 221 223 225 222 218 218 220 223 225 228 228 228 234 240 242 244 247 250 253 257 264 263 264 265 264 266
312 310 301 304 301 295 293 288 279 267 256 247 238 231 228 223 217 214 220 220 221 220 219 215 216 217 217 219 221 219 220 229 233 234 239 243 248 251 257 261 262 264 266 266 268
317 308 306 307 305 304 301 300 288 273 263 252 239 228 222 222 214 212 213 220 218 217 216 214 210 209 214 212 215 215 220 218 222 223 233 238 241 250 253 255 261 262 266 268 264
315 308 306 306 304 304 309 304 294 277 264 250 236 226 216 216 212 210 212 217 217 214 214 212 209 206 206 206 213 215 215 210 213 228 229 230 242 246 244 254 255 257 261 265 261
312 308 309 309 315 313 309 302 295 278 259 246 235 223 215 209 211 207 210 213 215 211 212 210 210 206 207 207 211 214 207 213 225 226 229 226 236 239 244 248 249 258 264 265 256
314 307 312 314 314 323 314 307 293 274 255 245 238 220 210 204 209 204 207 211 211 210 212 208 207 205 206 210 215 214 211 226 227 224 236 235 232 243 234 250 256 264 266 267 255
310 308 309 307 313 331 326 312 296 273 257 242 235 217 205 198 205 201 204 207 207 208 209 209 206 206 206 210 212 216 216 227 216 234 234 242 224 250 244 252 258 267 271 264 258
313 315 311 315 336 339 336 324 304 279 262 240 230 212 200 198 200 199 202 204 204 206 208 208 205 205 207 210 210 215 224 232 223 231 240 246 230 254 254 263 266 270 267 256 252
312 317 315 328 348 346 347 335 314 282 259 236 225 206 196 194 197 196 199 201 203 205 206 207 203 203 204 212 215 219 227 229 232 234 238 246 251 263 266 263 271 271 255 248 254
310 313 319 334 354 350 353 343 321 291 253 228 211 196 192 189 194 195 197 199 202 204 206 208 203 203 205 208 213 218 227 231 233 238 238 242 255 267 268 262 274 279 240 249 257
311 316 325 348 356 351 359 349 331 304 247 214 203 194 188 188 190 194 196 198 201 203 205 206 201 203 206 210 213 220 227 230 232 234 242 245 254 268 271 266 275 277 247 248 253
315 319 340 353 360 354 360 350 336 305 236 209 200 193 185 187 187 193 194 197 200 204 203 204 203 206 209 210 213 221 224 228 232 234 242 247 253 261 272 269 271 277 243 250 256
317 331 347 354 358 360 359 355 348 313 221 207 195 188 183 185 186 192 193 194 201 202 202 204 205 207 209 211 213 218 223 232 235 236 240 249 254 258 268 272 271 279 249 250 256
320 337 351 347 1 4 3 358 357 349 207 196 183 179 182 182 187 191 194 194 199 201 203 205 208 209 210 214 217 220 224 231 235 237 242 249 254 256 261 270 271 275 274 249 258
318 346 358 352 354 7 10 2 4 20 202 180 171 175 181 184 187 191 193 195 199 200 200 204 208 209 211 214 220 222 225 233 236 239 243 248 255 262 261 266 267 272 277 261 256
314 350 3 359 356 7 13 5 10 40 177 166 168 174 182 186 189 191 193 197 200 201 201 205 209 210 213 218 223 224 228 233 235 239 244 249 254 262 262 262 265 269 277 269 261
302 343 2 14 11 13 17 13 21 61 154 159 166 173 182 188 188 192 195 198 200 201 201 208 214 216 218 220 225 227 228 233 237 238 244 248 249 257 260 263 262 265 274 274 261
281 321 2 31 21 14 23 24 70 133 148 155 165 173 183 188 191 193 197 199 202 204 206 208 211 216 218 221 225 228 229 234 238 240 244 247 251 255 260 261 264 265 272 272 264
273 308 21 34 19 36 33 40 125 141 150 155 163 170 179 187 192 194 198 201 204 207 207 211 214 216 220 222 224 229 231 234 238 240 243 247 251 255 257 260 261 264 268 269 270
242 282 107 41 25 58 48 76 145 150 155 153 157 160 173 179 186 195 199 201 203 207 210 212 216 219 221 223 227 229 231 235 237 240 243 247 250 255 256 259 262 264 266 268 268
211 207 173 97 39 76 71 77 158 164 160 163 162 165 168 171 184 190 197 200 202 203 207 213 215 219 222 224 226 231 234 237 237 241 244 247 250 253 255 259 259 264 267 269 271
206 184 204 141 137 98 90 70 155 177 174 167 171 174 173 174 178 183 191 195 200 202 206 210 215 218 222 227 230 233 233 234 237 241 243 246 249 252 256 258 259 265 267 270 274
208 188 189 149 147 149 116 96 128 184 183 177 176 180 178 179 178 175 180 190 195 200 205 209 212 216 219 222 224 227 231 234 238 241 243 247 250 254 258 258 257 264 269 274 274
220 192 182 190 183 166 159 126 127 149 191 187 187 191 187 185 185 181 184 189 196 200 204 207 212 216 219 224 227 231 234 237 239 241 244 247 250 253 257 257 257 264 266 277 277
248 197 186 183 202 167 157 148 142 139 162 195 200 194 194 195 192 186 188 187 190 199 207 209 210 215 220 225 228 230 233 236 240 241 243 248 250 254 254 256 259 266 267 274 270
293 204 192 193 190 185 180 177 165 153 144 166 194 206 204 204 202 204 204 198 198 198 201 207 211 213 217 223 227 231 233 237 239 242 245 248 251 252 253 257 261 264 268 266 264